DW9097 Weather Reports


time (UTC)temp
F
wind
direction
speed
knots
gust
knots
rain 1hr
in
rain 24hr
in
rain mn
in
humidity
%
barometer
mb
20260507103508 66 0 0.0 6.1 0.00 0.00 0.00 63 932.4
20260507103026 66 333 0.9 9.6 0.00 0.00 0.00 64 1012.1
20260507103008 66 0 0.9 8.7 0.00 0.00 0.00 64 932.4
20260507102900 65 44 3.5 9.6 0.00 0.00 0.00 62 1012.0
20260507102526 65 44 3.5 9.6 0.00 0.00 0.00 62 1012.0
20260507102509 65 1 3.5 8.7 0.00 0.00 0.00 62 932.3
20260507102025 66 338 2.6 7.8 0.00 0.00 0.00 62 1012.2
20260507102008 66 3 1.7 7.8 0.00 0.00 0.00 60 932.5
20260507101848 67 4 0.0 8.7 0.00 0.00 0.00 62 1012.0
20260507101614 67 47 0.9 7.8 0.00 0.00 0.00 59 932.2
20260507101527 67 4 0.0 8.7 0.00 0.00 0.00 62 1012.0
20260507101007 66 23 2.6 5.2 0.00 0.00 0.00 58 932.3
20260507101005 67 30 3.5 9.6 0.00 0.00 0.00 59 1012.0
20260507100509 66 48 2.6 9.6 0.00 0.00 0.00 59 1012.1
20260507100505 66 48 2.6 9.6 0.00 0.00 0.00 59 1012.1
20260507100230 66 20 1.7 7.8 0.00 0.00 0.00 57 932.4
20260507100118 66 20 1.7 7.8 0.00 0.00 0.00 57 932.4
20260507100004 65 344 3.5 7.8 0.00 0.00 0.00 60 1012.1
20260507095507 66 329 2.6 6.1 0.00 0.00 0.00 57 932.5
20260507095504 66 329 3.5 7.8 0.00 0.00 0.00 57 1012.3
20260507095007 66 0 3.5 6.1 0.00 0.00 0.00 54 932.5
20260507094508 66 31 1.7 6.1 0.00 0.00 0.00 53 932.6
20260507094504 66 345 1.7 5.2 0.00 0.00 0.00 53 1012.4
20260507094146 66 337 0.9 8.7 0.00 0.00 0.00 54 1012.5
20260507094100 65 1 0.9 7.8 0.00 0.00 0.00 53 1012.6
20260507094019 65 1 0.9 6.1 0.00 0.00 0.00 54 932.7
20260507093508 66 347 1.7 8.7 0.00 0.00 0.00 51 932.8
20260507093503 66 337 0.9 8.7 0.00 0.00 0.00 54 1012.5
20260507093007 66 345 2.6 8.7 0.00 0.00 0.00 56 932.7
20260507093004 66 347 3.5 8.7 0.00 0.00 0.00 56 1012.4
20260507092954 66 1 3.5 7.8 0.00 0.00 0.00 59 932.6
20260507092507 66 1 3.5 7.8 0.00 0.00 0.00 59 932.6
20260507092504 66 0 3.5 7.8 0.00 0.00 0.00 58 1012.4
20260507092400 67 353 2.6 7.8 0.00 0.00 0.00 58 1012.3
20260507092214 67 353 2.6 7.8 0.00 0.00 0.00 58 1012.3
20260507092018 67 353 4.3 6.1 0.00 0.00 0.00 55 932.4
20260507091507 66 306 1.7 7.8 0.00 0.00 0.00 57 932.5
20260507091504 66 0 3.5 10.4 0.00 0.00 0.00 59 1012.3
20260507091237 67 37 2.6 7.8 0.00 0.00 0.00 54 932.6
20260507091007 67 37 2.6 7.8 0.00 0.00 0.00 54 932.6
20260507090941 67 0 3.5 10.4 0.00 0.00 0.00 58 1012.4
20260507090753 67 0 0.0 8.7 0.00 0.00 0.00 52 1012.5
20260507090521 67 0 0.0 5.2 0.00 0.00 0.00 53 932.7
20260507090432 67 0 0.0 8.7 0.00 0.00 0.00 52 1012.5
20260507090007 66 351 0.0 4.3 0.00 0.00 0.00 49 932.6
20260507085932 66 0 0.9 7.8 0.00 0.00 0.00 48 1012.4
20260507085729 65 0 1.7 4.3 0.00 0.00 0.00 51 932.4
20260507085614 65 0 1.7 4.3 0.00 0.00 0.00 51 932.4
20260507085432 65 0 1.7 7.8 0.00 0.00 0.00 50 1012.2
20260507085318 66 34 2.6 5.2 0.00 0.00 0.00 46 1012.3
20260507085140 66 34 2.6 5.2 0.00 0.00 0.00 46 1012.3
20260507085006 66 0 1.7 5.2 0.00 0.00 0.00 47 932.5
20260507084506 67 310 1.7 6.1 0.00 0.00 0.00 45 932.2
20260507084432 67 28 1.7 7.8 0.00 0.00 0.00 45 1012.0
20260507084337 66 351 0.0 6.1 0.00 0.00 0.00 49 932.2
20260507084249 66 351 0.0 6.1 0.00 0.00 0.00 49 932.2
20260507084102 65 7 0.0 7.8 0.00 0.00 0.00 48 1012.3
20260507084029 66 341 0.0 7.8 0.00 0.00 0.00 48 1012.0
20260507083506 65 0 0.0 7.8 0.00 0.00 0.00 48 932.4
20260507083004 65 10 1.7 7.8 0.00 0.00 0.00 52 932.4
20260507082932 65 0 1.7 7.8 0.00 0.00 0.00 52 1012.1
20260507082755 64 341 0.0 4.3 0.00 0.00 0.00 54 1012.0
20260507082640 64 341 0.0 4.3 0.00 0.00 0.00 54 1012.0
20260507082519 64 8 0.9 4.3 0.00 0.00 0.00 54 932.2
20260507082227 64 1 0.9 6.1 0.00 0.00 0.00 55 1012.1
20260507082005 64 338 0.0 4.3 0.00 0.00 0.00 56 932.3
20260507081957 64 3 0.9 4.3 0.00 0.00 0.00 58 932.3
20260507081933 64 1 0.9 6.1 0.00 0.00 0.00 55 1012.1
20260507081742 64 0 0.9 6.1 0.00 0.00 0.00 60 1012.1
20260507081506 64 3 0.9 4.3 0.00 0.00 0.00 58 932.3
20260507081428 64 0 0.9 6.1 0.00 0.00 0.00 60 1012.1
20260507081237 64 0 2.6 5.2 0.00 0.00 0.00 56 1012.1
20260507081234 64 0 1.7 4.3 0.00 0.00 0.00 57 932.3
20260507081110 64 0 1.7 4.3 0.00 0.00 0.00 57 932.3
20260507080927 64 0 2.6 5.2 0.00 0.00 0.00 56 1012.1
20260507080510 64 16 0.9 6.1 0.00 0.00 0.00 56 932.4
20260507080440 64 0 0.9 6.1 0.00 0.00 0.00 55 1012.0
20260507080005 64 11 2.6 6.1 0.00 0.00 0.00 57 932.3
20260507075929 64 353 2.6 7.8 0.00 0.00 0.00 57 1012.1
20260507075733 64 20 2.6 6.1 0.00 0.00 0.00 58 932.3
20260507075611 64 20 2.6 6.1 0.00 0.00 0.00 58 932.3
20260507075425 64 0 3.5 7.8 0.00 0.00 0.00 57 1012.1
20260507075258 65 340 0.0 6.1 0.00 0.00 0.00 55 1012.1
20260507075134 65 340 0.0 6.1 0.00 0.00 0.00 55 1012.1
20260507075005 65 17 0.0 4.3 0.00 0.00 0.00 55 932.4
20260507074506 64 25 1.7 10.4 0.00 0.00 0.00 58 932.4
20260507074424 64 0 2.6 10.4 0.00 0.00 0.00 59 1012.1
20260507074005 64 6 1.7 10.4 0.00 0.00 0.00 57 932.5
20260507073923 64 0 1.7 10.4 0.00 0.00 0.00 55 1012.1
20260507073505 64 357 2.6 5.2 0.00 0.00 0.00 59 932.2
20260507073423 64 357 3.5 7.8 0.00 0.00 0.00 60 1011.9
20260507073230 64 0 0.0 2.6 0.00 0.00 0.00 58 932.5
20260507073110 64 0 0.0 2.6 0.00 0.00 0.00 58 932.5
20260507072924 64 0 0.0 4.3 0.00 0.00 0.00 57 1012.2
20260507072505 63 44 0.0 4.3 0.00 0.00 0.00 60 932.7
20260507072422 63 338 0.0 4.3 0.00 0.00 0.00 59 1012.2
20260507072029 63 0 2.6 5.2 0.00 0.00 0.00 63 932.6
20260507072017 63 347 0.0 5.2 0.00 0.00 0.00 61 932.4
20260507071924 63 357 1.7 5.2 0.00 0.00 0.00 61 1012.2
20260507071504 63 0 2.6 5.2 0.00 0.00 0.00 63 932.6
20260507071430 63 0 1.7 6.1 0.00 0.00 0.00 64 1012.4
20260507071425 63 17 1.7 6.1 0.00 0.00 0.00 64 1012.3
20260507071002 63 0 3.5 5.2 0.00 0.00 0.00 63 932.5
20260507070924 63 23 3.5 7.8 0.00 0.00 0.00 62 1012.2
20260507070808 63 4 0.0 7.8 0.00 0.00 0.00 59 1012.4
20260507070506 63 3 0.0 4.3 0.00 0.00 0.00 61 932.7
20260507070423 63 4 0.0 7.8 0.00 0.00 0.00 59 1012.4
20260507070009 63 337 0.9 5.2 0.00 0.00 0.00 64 932.6
20260507065923 63 337 0.9 5.2 0.00 0.00 0.00 57 1012.3
20260507065731 63 0 2.6 5.2 0.00 0.00 0.00 58 932.6
20260507065505 63 0 2.6 5.2 0.00 0.00 0.00 58 932.6
20260507065423 63 345 1.7 5.2 0.00 0.00 0.00 58 1012.3
20260507065300 62 11 0.9 3.5 0.00 0.00 0.00 62 1012.4
20260507065229 62 21 0.0 3.5 0.00 0.00 0.00 62 932.7
20260507065130 62 11 0.9 3.5 0.00 0.00 0.00 62 1012.4
20260507065003 62 21 0.0 3.5 0.00 0.00 0.00 62 932.7
20260507064505 62 343 0.0 4.3 0.00 0.00 0.00 61 932.7
20260507064422 62 44 0.0 4.3 0.00 0.00 0.00 62 1012.3
20260507064006 62 343 1.7 4.3 0.00 0.00 0.00 62 932.6
20260507063923 62 344 0.0 4.3 0.00 0.00 0.00 63 1012.3
20260507063504 62 41 0.9 2.6 0.00 0.00 0.00 55 932.4
20260507063426 62 0 0.9 4.3 0.00 0.00 0.00 57 1012.2
20260507063345 61 357 0.0 0.9 0.00 0.00 0.00 57 932.4
20260507062923 61 10 0.0 4.3 0.00 0.00 0.00 58 1012.2
20260507062506 60 357 0.0 3.5 0.00 0.00 0.00 62 932.4
20260507062423 60 0 0.0 3.5 0.00 0.00 0.00 62 1012.1
20260507062004 59 54 0.9 3.5 0.00 0.00 0.00 66 932.5
20260507061923 59 0 0.9 4.3 0.00 0.00 0.00 65 1012.2
20260507061505 59 337 0.0 3.5 0.00 0.00 0.00 68 932.5
20260507061422 59 333 0.0 4.3 0.00 0.00 0.00 68 1012.1
20260507061230 59 13 2.6 3.5 0.00 0.00 0.00 67 932.6
20260507061112 59 13 2.6 3.5 0.00 0.00 0.00 67 932.6
20260507060921 59 0 1.7 4.3 0.00 0.00 0.00 68 1012.3
20260507060504 59 11 0.0 0.0 0.00 0.00 0.00 68 932.6
20260507060423 59 10 0.0 0.0 0.00 0.00 0.00 69 1012.4
20260507060002 58 0 0.0 0.0 0.00 0.00 0.00 69 932.6
20260507055930 58 1 0.0 0.0 0.00 0.00 0.00 68 1012.2
20260507055828 58 0 0.0 0.0 0.00 0.00 0.00 67 1012.4
20260507055726 58 0 0.0 0.0 0.00 0.00 0.00 67 932.7
20260507055610 58 0 0.0 0.0 0.00 0.00 0.00 67 932.7
20260507055421 58 0 0.0 0.0 0.00 0.00 0.00 67 1012.4
20260507055002 58 47 0.0 0.0 0.00 0.00 0.00 66 932.6
20260507054928 58 354 0.0 0.0 0.00 0.00 0.00 67 1012.3
20260507054504 58 0 0.0 0.0 0.00 0.00 0.00 71 932.7
20260507054422 58 0 0.0 0.0 0.00 0.00 0.00 71 1012.3
20260507054000 59 3 0.0 0.0 0.00 0.00 0.00 62 932.8
20260507053922 59 17 0.0 0.0 0.00 0.00 0.00 68 1012.5
20260507053503 59 27 0.0 0.0 0.00 0.00 0.00 59 932.7
20260507053420 59 24 0.0 0.0 0.00 0.00 0.00 60 1012.4
20260507053002 59 20 0.0 0.0 0.00 0.00 0.00 59 932.7
20260507052922 59 20 0.0 0.0 0.00 0.00 0.00 59 1012.4
20260507052857 58 18 0.0 0.0 0.00 0.00 0.00 51 1012.5
20260507052531 58 18 0.0 0.0 0.00 0.00 0.00 51 1012.5
20260507052502 59 21 0.0 0.0 0.00 0.00 0.00 50 932.6
20260507052453 59 21 0.0 0.0 0.00 0.00 0.00 49 1012.4
20260507052000 58 18 0.0 0.0 0.00 0.00 0.00 51 932.6
20260507051516 58 20 0.0 0.0 0.00 0.00 0.00 51 932.6
20260507051439 58 20 0.0 0.0 0.00 0.00 0.00 50 1012.4
20260507051253 58 21 0.0 0.9 0.00 0.00 0.00 51 1012.3
20260507051222 58 20 0.0 0.0 0.00 0.00 0.00 51 932.6
20260507051110 58 20 0.0 0.0 0.00 0.00 0.00 51 932.6
20260507050934 58 21 0.0 0.9 0.00 0.00 0.00 51 1012.3
20260507050841 58 16 0.0 0.9 0.00 0.00 0.00 50 1012.2
20260507050639 58 16 0.0 0.9 0.00 0.00 0.00 50 1012.2
20260507050502 58 16 0.0 0.0 0.00 0.00 0.00 49 932.6
20260507045959 58 11 0.0 0.0 0.00 0.00 0.00 54 932.4
20260507045921 58 11 0.0 0.0 0.00 0.00 0.00 56 1012.2
20260507045731 58 11 0.0 0.0 0.00 0.00 0.00 47 932.5
20260507045503 58 11 0.0 0.0 0.00 0.00 0.00 47 932.5
20260507045422 58 11 0.0 0.0 0.00 0.00 0.00 48 1012.3
20260507045418 58 11 0.0 0.0 0.00 0.00 0.00 48 1012.2
20260507045224 57 11 0.0 0.0 0.00 0.00 0.00 48 932.5
20260507045001 57 11 0.0 0.0 0.00 0.00 0.00 48 932.5
20260507044918 57 11 0.0 0.0 0.00 0.00 0.00 47 1012.3
20260507044908 58 11 0.0 0.0 0.00 0.00 0.00 47 1012.2
20260507044725 57 11 0.0 0.0 0.00 0.00 0.00 48 932.5
20260507044607 57 11 0.0 0.0 0.00 0.00 0.00 48 932.5
20260507044411 57 11 0.0 0.0 0.00 0.00 0.00 48 1012.2
20260507044001 57 6 0.0 0.9 0.00 0.00 0.00 48 932.5
20260507043919 57 6 0.0 1.7 0.00 0.00 0.00 48 1012.3
20260507043908 57 7 0.0 1.7 0.00 0.00 0.00 48 1012.2
20260507043507 57 7 0.0 0.9 0.00 0.00 0.00 47 932.6
20260507043407 57 7 0.0 1.7 0.00 0.00 0.00 49 1012.3
20260507043000 57 7 0.0 0.9 0.00 0.00 0.00 47 932.6
20260507042909 57 7 0.0 0.9 0.00 0.00 0.00 47 1012.3
20260507042501 57 7 0.0 0.0 0.00 0.00 0.00 46 932.6
20260507042406 57 7 0.0 0.0 0.00 0.00 0.00 46 1012.3
20260507041959 56 7 0.0 0.0 0.00 0.00 0.00 47 932.6
20260507041917 56 7 0.0 0.0 0.00 0.00 0.00 47 1012.4
20260507041907 56 7 0.0 0.0 0.00 0.00 0.00 47 1012.4
20260507041730 56 7 0.0 0.0 0.00 0.00 0.00 47 1012.4
20260507041502 56 7 0.0 0.0 0.00 0.00 0.00 47 932.7
20260507041410 56 7 0.0 0.0 0.00 0.00 0.00 47 1012.5
20260507041000 56 7 0.0 0.0 0.00 0.00 0.00 47 932.7
20260507040905 56 7 0.0 0.0 0.00 0.00 0.00 47 1012.4
20260507040755 56 7 0.0 0.0 0.00 0.00 0.00 46 1012.5
20260507040627 56 7 0.0 0.0 0.00 0.00 0.00 46 1012.5
20260507040501 56 7 0.0 0.0 0.00 0.00 0.00 46 932.8
20260507035959 57 7 0.0 0.0 0.00 0.00 0.00 45 932.8
20260507035905 57 7 0.0 0.0 0.00 0.00 0.00 46 1012.6
20260507035750 57 7 0.0 0.0 0.00 0.00 0.00 45 1012.7
20260507035721 57 7 0.0 0.0 0.00 0.00 0.00 45 933.0
20260507035612 57 7 0.0 0.0 0.00 0.00 0.00 45 933.0
20260507035403 57 7 0.0 0.0 0.00 0.00 0.00 46 1012.6
20260507035000 57 7 0.0 0.0 0.00 0.00 0.00 45 932.9
20260507034917 57 7 0.0 0.0 0.00 0.00 0.00 47 1012.6
20260507034907 57 7 0.0 0.0 0.00 0.00 0.00 47 1012.7
20260507034501 58 7 0.0 0.0 0.00 0.00 0.00 45 933.1
20260507034417 57 7 0.0 0.0 0.00 0.00 0.00 46 1012.8
20260507034402 58 7 0.0 0.0 0.00 0.00 0.00 46 1012.8
20260507034258 58 7 0.0 0.0 0.00 0.00 0.00 45 1012.9
20260507034248 58 7 0.0 0.0 0.00 0.00 0.00 45 1012.8
20260507034244 58 7 0.0 0.0 0.00 0.00 0.00 45 1013.0
20260507033959 58 7 0.0 0.0 0.00 0.00 0.00 45 933.1
20260507033915 58 7 0.0 0.0 0.00 0.00 0.00 45 1013.1
20260507033907 58 7 0.0 0.0 0.00 0.00 0.00 45 1012.9
20260507033723 58 7 0.0 0.0 0.00 0.00 0.00 45 1013.0
20260507033501 58 7 0.0 0.0 0.00 0.00 0.00 45 933.1
20260507033221 58 7 0.0 0.0 0.00 0.00 0.00 45 933.2
20260507033104 58 7 0.0 0.0 0.00 0.00 0.00 45 933.2
20260507032501 58 7 0.0 0.0 0.00 0.00 0.00 45 933.2
20260507032440 58 7 0.0 0.0 0.00 0.00 0.00 44 1012.8
20260507032420 58 7 0.0 0.0 0.00 0.00 0.00 45 1013.0
20260507032228 58 7 0.0 0.0 0.00 0.00 0.00 44 933.0
20260507032038 58 7 0.0 0.0 0.00 0.00 0.00 44 1012.9
20260507031958 58 7 0.0 0.0 0.00 0.00 0.00 44 933.0
20260507031723 58 7 0.0 0.0 0.00 0.00 0.00 44 933.1
20260507031615 58 7 0.0 0.0 0.00 0.00 0.00 45 1012.9
20260507031612 58 7 0.0 0.0 0.00 0.00 0.00 44 933.1
20260507031004 58 7 0.0 0.0 0.00 0.00 0.00 44 933.2
20260507030917 58 7 0.0 0.0 0.00 0.00 0.00 44 1013.0
20260507030903 58 7 0.0 0.0 0.00 0.00 0.00 44 1012.9
20260507030505 58 7 0.0 0.0 0.00 0.00 0.00 44 933.2
20260507030404 58 7 0.0 0.0 0.00 0.00 0.00 44 1012.9
20260507030001 0 7 0.0 0.0 0.00 0.00 0.00 933.1
20260507025904 59 7 0.0 0.0 0.00 0.00 0.00 44 1013.0
20260507025718 59 7 0.0 0.0 0.00 0.00 0.00 42 933.2
20260507025605 59 7 0.0 0.0 0.00 0.00 0.00 42 933.2
20260507025419 59 7 0.0 0.0 0.00 0.00 0.00 44 1013.0
20260507025410 59 7 0.0 0.0 0.00 0.00 0.00 44 1012.9
20260507024958 59 7 0.0 0.0 0.00 0.00 0.00 42 933.1
20260507024916 59 7 0.0 0.0 0.00 0.00 0.00 43 1012.8
20260507024902 59 7 0.0 0.0 0.00 0.00 0.00 43 1012.8
20260507024458 59 7 0.0 0.0 0.00 0.00 0.00 42 932.9
20260507024417 59 7 0.0 0.0 0.00 0.00 0.00 42 1012.6
20260507024406 59 7 0.0 0.0 0.00 0.00 0.00 42 1012.6
20260507024401 59 7 0.0 0.0 0.00 0.00 0.00 42 1012.5
20260507024352 59 7 0.0 0.0 0.00 0.00 0.00 43 1012.5
20260507024223 59 7 0.0 0.0 0.00 0.00 0.00 43 1012.4
20260507023959 59 7 0.0 0.0 0.00 0.00 0.00 42 932.7
20260507023729 59 7 0.0 0.0 0.00 0.00 0.00 42 932.8
20260507023610 59 7 0.0 0.0 0.00 0.00 0.00 42 932.8
20260507022958 60 7 0.0 0.0 0.00 0.00 0.00 41 932.8
20260507022928 60 7 0.0 0.0 0.00 0.00 0.00 42 1012.6
20260507022905 60 6 0.0 0.0 0.00 0.00 0.00 42 1012.6
20260507022517 60 7 0.0 0.0 0.00 0.00 0.00 40 1012.5
20260507022506 60 7 0.0 0.0 0.00 0.00 0.00 40 1012.5
20260507022459 60 7 0.0 0.0 0.00 0.00 0.00 40 932.8
20260507022112 60 7 0.0 3.5 0.00 0.00 0.00 40 1012.4
20260507022015 60 7 0.0 2.6 0.00 0.00 0.00 40 932.6
20260507021458 60 1 0.0 2.6 0.00 0.00 0.00 40 932.5
20260507021416 60 1 0.0 5.2 0.00 0.00 0.00 40 1012.4
20260507021355 60 0 0.0 5.2 0.00 0.00 0.00 40 1012.3
20260507020957 60 1 0.0 2.6 0.00 0.00 0.00 40 932.6
20260507020915 60 1 0.9 5.2 0.00 0.00 0.00 40 1012.3
20260507020853 60 1 0.9 5.2 0.00 0.00 0.00 40 1012.4
20260507020459 60 354 0.0 0.9 0.00 0.00 0.00 39 932.6
20260507020414 60 354 0.0 1.7 0.00 0.00 0.00 40 1012.3
20260507020351 60 354 0.0 3.5 0.00 0.00 0.00 40 1012.3
20260507020217 60 354 0.0 2.6 0.00 0.00 0.00 39 932.6
20260507015916 60 354 0.0 5.2 0.00 0.00 0.00 39 1012.4
20260507015854 60 354 0.0 5.2 0.00 0.00 0.00 39 1012.5
20260507015459 60 354 0.9 2.6 0.00 0.00 0.00 40 932.4
20260507015415 60 354 0.9 5.2 0.00 0.00 0.00 39 1012.2
20260507015353 60 338 0.0 0.9 0.00 0.00 0.00 39 1012.2
20260507014957 60 329 0.0 0.0 0.00 0.00 0.00 40 932.5
20260507014915 60 329 0.0 0.0 0.00 0.00 0.00 40 1012.3
20260507014848 60 329 0.0 0.0 0.00 0.00 0.00 40 1012.4
20260507014755 60 327 0.0 0.0 0.00 0.00 0.00 41 1012.4
20260507014457 60 327 0.0 0.0 0.00 0.00 0.00 41 932.6
20260507014349 60 327 0.0 0.0 0.00 0.00 0.00 41 1012.4
20260507014228 60 327 0.0 0.0 0.00 0.00 0.00 41 932.7
20260507013957 60 327 0.0 0.0 0.00 0.00 0.00 41 932.7
20260507013914 60 327 0.0 0.0 0.00 0.00 0.00 42 1012.5
20260507013844 60 326 0.0 0.0 0.00 0.00 0.00 41 1012.6
20260507013458 60 327 0.0 0.9 0.00 0.00 0.00 41 932.9
20260507013414 59 327 0.0 0.9 0.00 0.00 0.00 41 1012.6
20260507013344 60 327 0.0 0.9 0.00 0.00 0.00 41 1012.7
20260507012957 59 329 0.0 0.9 0.00 0.00 0.00 41 933.0
20260507012915 60 327 0.0 0.9 0.00 0.00 0.00 41 1012.8
20260507012838 60 327 0.0 0.9 0.00 0.00 0.00 41 1012.8
20260507012735 59 326 0.0 0.9 0.00 0.00 0.00 41 1012.8
20260507012456 59 326 0.0 0.0 0.00 0.00 0.00 41 933.0
20260507012338 59 326 0.0 0.9 0.00 0.00 0.00 42 1012.8
20260507011956 59 323 0.0 0.0 0.00 0.00 0.00 42 933.1
20260507011913 59 324 0.0 0.9 0.00 0.00 0.00 41 1012.9
20260507011836 59 323 0.0 0.9 0.00 0.00 0.00 41 1012.8
20260507011722 59 323 0.0 0.0 0.00 0.00 0.00 44 933.1
20260507011457 59 323 0.0 0.0 0.00 0.00 0.00 44 933.1
20260507011415 59 293 0.0 0.0 0.00 0.00 0.00 44 1012.8
20260507011337 59 295 0.0 0.0 0.00 0.00 0.00 44 1012.8
20260507011217 58 293 0.0 0.0 0.00 0.00 0.00 44 933.0
20260507011002 58 293 0.0 0.0 0.00 0.00 0.00 44 933.0
20260507010913 58 293 0.0 0.0 0.00 0.00 0.00 43 1012.9
20260507010836 58 293 0.0 0.0 0.00 0.00 0.00 43 1012.8
20260507010735 58 281 0.0 0.0 0.00 0.00 0.00 44 1013.1
20260507010457 58 281 0.0 0.0 0.00 0.00 0.00 44 933.2
20260507010337 58 282 0.0 0.0 0.00 0.00 0.00 44 1013.1
20260507005956 58 281 0.0 0.0 0.00 0.00 0.00 45 933.0
20260507005914 58 281 0.0 0.0 0.00 0.00 0.00 44 1012.8
20260507005838 58 281 0.0 0.0 0.00 0.00 0.00 44 1012.8
20260507005457 58 281 0.0 0.0 0.00 0.00 0.00 45 933.0
20260507005413 58 281 0.0 0.0 0.00 0.00 0.00 45 1012.7
20260507005334 58 281 0.0 0.0 0.00 0.00 0.00 45 1012.7
20260507005235 58 281 0.0 0.0 0.00 0.00 0.00 45 1012.8
20260507005218 58 281 0.0 0.0 0.00 0.00 0.00 46 932.9
20260507005101 58 281 0.0 0.0 0.00 0.00 0.00 46 932.9
20260507004834 58 279 0.0 0.0 0.00 0.00 0.00 46 1012.8
20260507004720 58 281 0.0 0.0 0.00 0.00 0.00 46 933.1
20260507004603 58 281 0.0 0.0 0.00 0.00 0.00 46 933.1
20260507004412 58 281 0.0 0.0 0.00 0.00 0.00 46 1012.8
20260507004335 58 281 0.0 0.0 0.00 0.00 0.00 46 1012.9
20260507004144 58 279 0.0 0.0 0.00 0.00 0.00 47 1012.9
20260507004054 58 281 0.0 0.0 0.00 0.00 0.00 47 1012.9
20260507004008 58 281 0.0 0.0 0.00 0.00 0.00 46 933.1
20260507003823 58 281 0.0 0.0 0.00 0.00 0.00 47 933.2
20260507003719 58 281 0.0 0.0 0.00 0.00 0.00 47 933.2
20260507003414 58 281 0.0 0.0 0.00 0.00 0.00 47 1013.0
20260507003334 58 281 0.0 0.0 0.00 0.00 0.00 47 1012.9
20260507003137 58 281 0.0 0.0 0.00 0.00 0.00 47 1013.0
20260507003046 58 281 0.0 0.0 0.00 0.00 0.00 46 1012.9
20260507002956 58 281 0.0 0.0 0.00 0.00 0.00 47 933.1
20260507002455 58 281 0.0 0.0 0.00 0.00 0.00 47 933.3
20260507002412 58 281 0.0 0.0 0.00 0.00 0.00 47 1013.1
20260507002319 58 279 0.0 0.0 0.00 0.00 0.00 47 1013.2
20260507002221 58 281 0.0 0.0 0.00 0.00 0.00 47 933.5
20260507002022 57 281 0.0 0.0 0.00 0.00 0.00 47 1013.4
20260507002018 57 281 0.0 0.0 0.00 0.00 0.00 46 1013.4
20260507001955 58 281 0.0 0.0 0.00 0.00 0.00 47 933.5
20260507001947 58 281 0.0 0.0 0.00 0.00 0.00 47 1013.4
20260507001931 58 281 0.0 0.0 0.00 0.00 0.00 47 1013.2
20260507001457 57 281 0.0 0.0 0.00 0.00 0.00 47 933.4
20260507000954 57 281 0.0 0.0 0.00 0.00 0.00 48 933.4
20260507000911 57 281 0.0 0.0 0.00 0.00 0.00 49 1013.4
20260507000817 57 281 0.0 0.0 0.00 0.00 0.00 48 1013.2
20260507000457 57 281 0.0 0.0 0.00 0.00 0.00 49 933.6
20260507000412 57 281 0.0 0.0 0.00 0.00 0.00 49 1013.5
20260507000318 57 281 0.0 0.0 0.00 0.00 0.00 48 1013.5
20260506235956 57 281 0.0 0.0 0.00 0.00 0.00 46 933.6
20260506235912 57 281 0.0 0.0 0.00 0.00 0.00 47 1013.5
20260506235813 57 281 0.0 0.0 0.00 0.00 0.00 47 1013.5
20260506235455 57 281 0.0 0.0 0.00 0.00 0.00 48 933.6
20260506235413 57 281 0.0 0.0 0.00 0.00 0.00 48 1013.4
20260506235316 57 281 0.0 0.0 0.00 0.00 0.00 48 1013.4
20260506235230 57 281 0.0 0.0 0.00 0.00 0.00 48 933.6
20260506234956 57 281 0.0 0.0 0.00 0.00 0.00 48 933.6
20260506234947 56 281 0.0 0.0 0.00 0.00 0.00 48 933.6
20260506234913 57 281 0.0 0.0 0.00 0.00 0.00 48 1013.4
20260506234829 57 281 0.0 0.0 0.00 0.00 0.00 48 1013.4
20260506234456 56 281 0.0 0.0 0.00 0.00 0.00 48 933.6
20260506234451 57 281 0.0 0.0 0.00 0.00 0.00 49 1013.5
20260506234413 57 281 0.0 0.0 0.00 0.00 0.00 48 1013.5
20260506234042 56 281 0.0 0.0 0.00 0.00 0.00 49 1013.5
20260506233955 56 281 0.0 0.0 0.00 0.00 0.00 48 933.5
20260506233456 56 281 0.0 0.0 0.00 0.00 0.00 48 933.6
20260506233411 56 279 0.0 0.0 0.00 0.00 0.00 48 1013.5
20260506233313 56 281 0.0 0.0 0.00 0.00 0.00 48 1013.5
20260506232955 56 281 0.0 0.0 0.00 0.00 0.00 47 933.6
20260506232911 57 281 0.0 0.0 0.00 0.00 0.00 48 1013.4
20260506232814 56 281 0.0 0.0 0.00 0.00 0.00 48 1013.4
20260506232729 56 281 0.0 0.0 0.00 0.00 0.00 47 1013.5
20260506232540 56 282 0.0 0.0 0.00 0.00 0.00 48 933.5
20260506232455 56 281 0.0 0.0 0.00 0.00 0.00 49 933.6
20260506232318 56 281 0.0 0.0 0.00 0.00 0.00 47 1013.4
20260506232215 56 282 0.0 0.0 0.00 0.00 0.00 48 933.5
20260506231927 56 281 0.0 0.0 0.00 0.00 0.00 48 1013.2
20260506231902 56 281 0.0 0.0 0.00 0.00 0.00 47 1013.5
20260506231455 56 281 0.0 0.0 0.00 0.00 0.00 48 933.7
20260506231419 56 281 0.0 0.0 0.00 0.00 0.00 46 1013.6
20260506231313 56 281 0.0 0.0 0.00 0.00 0.00 48 1013.6
20260506230954 56 281 0.0 0.0 0.00 0.00 0.00 48 933.7
20260506230910 56 281 0.0 0.0 0.00 0.00 0.00 48 1013.7
20260506230814 56 281 0.0 0.0 0.00 0.00 0.00 48 1013.7
20260506230455 56 281 0.0 0.0 0.00 0.00 0.00 48 933.8
20260506230411 56 279 0.0 0.0 0.00 0.00 0.00 48 1013.7
20260506230312 56 281 0.0 0.0 0.00 0.00 0.00 49 1013.6
20260506230154 56 281 0.0 0.0 0.00 0.00 0.00 49 1013.7
20260506225952 56 281 0.0 0.0 0.00 0.00 0.00 50 933.8
20260506225812 56 281 0.0 0.0 0.00 0.00 0.00 49 1013.6
20260506225723 56 281 0.0 0.0 0.00 0.00 0.00 50 933.8
20260506225601 56 281 0.0 0.0 0.00 0.00 0.00 50 933.8
20260506225409 56 281 0.0 0.0 0.00 0.00 0.00 50 1013.6
20260506225314 56 281 0.0 0.0 0.00 0.00 0.00 50 1013.6
20260506225230 56 281 0.0 0.0 0.00 0.00 0.00 49 933.8
20260506225222 56 281 0.0 0.0 0.00 0.00 0.00 50 1013.6
20260506224953 56 281 0.0 0.0 0.00 0.00 0.00 49 933.8
20260506224811 56 281 0.0 0.0 0.00 0.00 0.00 49 1013.6
20260506224753 56 281 0.0 0.0 0.00 0.00 0.00 49 1013.6
20260506224455 56 281 0.0 0.0 0.00 0.00 0.00 49 933.8
20260506224326 57 281 0.0 0.0 0.00 0.00 0.00 49 933.8
20260506224312 56 281 0.0 0.0 0.00 0.00 0.00 49 1013.6
20260506224142 57 281 0.0 0.0 0.00 0.00 0.00 48 1013.7
20260506224042 57 281 0.0 0.0 0.00 0.00 0.00 48 1013.6
20260506223835 57 281 0.0 0.0 0.00 0.00 0.00 49 933.9
20260506223714 57 281 0.0 0.0 0.00 0.00 0.00 49 933.9
20260506223412 57 281 0.0 0.0 0.00 0.00 0.00 50 1013.7
20260506223311 57 281 0.0 0.0 0.00 0.00 0.00 49 1013.8
20260506223138 57 281 0.0 0.0 0.00 0.00 0.00 49 1013.6
20260506223040 57 281 0.0 0.0 0.00 0.00 0.00 49 1013.7
20260506222954 57 281 0.0 0.0 0.00 0.00 0.00 48 933.9
20260506222455 57 281 0.0 0.0 0.00 0.00 0.00 48 933.7
20260506222444 57 281 0.0 0.0 0.00 0.00 0.00 49 933.7
20260506222410 57 281 0.0 0.0 0.00 0.00 0.00 49 1013.6
20260506222313 57 281 0.0 0.0 0.00 0.00 0.00 48 1013.6
20260506222233 57 281 0.0 0.0 0.00 0.00 0.00 49 1013.6
20260506221952 57 281 0.0 0.0 0.00 0.00 0.00 49 933.7
20260506221814 57 281 0.0 0.0 0.00 0.00 0.00 48 1013.6
20260506221739 57 281 0.0 0.0 0.00 0.00 0.00 49 1013.8
20260506221711 57 282 0.0 0.0 0.00 0.00 0.00 48 933.9
20260506221600 57 282 0.0 0.0 0.00 0.00 0.00 48 933.9
20260506221310 57 281 0.0 0.0 0.00 0.00 0.00 48 1013.8
20260506221216 0 281 0.0 0.0 0.00 0.00 0.00 933.8
20260506220951 0 281 0.0 0.0 0.00 0.00 0.00 933.8
20260506220909 57 281 0.0 0.0 0.00 0.00 0.00 49 1013.7
20260506220813 58 281 0.0 0.0 0.00 0.00 0.00 49 1013.6
20260506220453 58 281 0.0 0.0 0.00 0.00 0.00 49 933.8
20260506220438 58 281 0.0 0.0 0.00 0.00 0.00 49 933.8
20260506220410 58 281 0.0 0.0 0.00 0.00 0.00 49 1013.7
20260506220312 58 281 0.0 0.0 0.00 0.00 0.00 48 1013.7
20260506220121 58 281 0.0 0.0 0.00 0.00 0.00 49 1013.8
20260506220033 58 279 0.0 0.0 0.00 0.00 0.00 49 1013.8
20260506215952 58 281 0.0 0.0 0.00 0.00 0.00 49 933.8
20260506215822 58 281 0.0 0.0 0.00 0.00 0.00 49 933.8
20260506215508 58 281 0.0 0.0 0.00 0.00 0.00 49 1013.7
20260506215447 58 281 0.0 0.0 0.00 0.00 0.00 49 1013.8
20260506214950 58 281 0.0 0.0 0.00 0.00 0.00 48 933.8
20260506214810 58 281 0.0 0.0 0.00 0.00 0.00 48 1013.6
20260506214738 58 281 0.0 0.0 0.00 0.00 0.00 49 1013.8
20260506214453 58 281 0.0 0.0 0.00 0.00 0.00 48 933.9
20260506214323 58 281 0.0 0.0 0.00 0.00 0.00 49 1013.8
20260506213952 58 281 0.0 0.0 0.00 0.00 0.00 48 934.0
20260506213908 58 279 0.0 0.0 0.00 0.00 0.00 48 1013.8
20260506213812 58 281 0.0 0.0 0.00 0.00 0.00 48 1013.9
20260506213734 58 281 0.0 0.0 0.00 0.00 0.00 47 1013.8
20260506213717 58 279 0.0 0.0 0.00 0.00 0.00 48 934.0
20260506213453 58 279 0.0 0.0 0.00 0.00 0.00 48 934.0
20260506213310 58 281 0.0 0.0 0.00 0.00 0.00 47 1013.8
20260506213216 59 279 0.0 0.0 0.00 0.00 0.00 48 1013.9
20260506212951 58 279 0.0 0.0 0.00 0.00 0.00 48 934.0
20260506212810 59 278 0.0 0.0 0.00 0.00 0.00 48 1013.8
20260506212453 58 279 0.0 0.0 0.00 0.00 0.00 48 934.1
20260506212412 58 279 0.0 0.0 0.00 0.00 0.00 47 1014.0
20260506212315 58 279 0.0 0.0 0.00 0.00 0.00 47 1013.9
20260506212227 58 281 0.0 0.0 0.00 0.00 0.00 48 933.9
20260506212200 58 279 0.0 0.0 0.00 0.00 0.00 47 1013.8
20260506211951 58 281 0.0 0.0 0.00 0.00 0.00 48 933.9
20260506211810 58 279 0.0 0.0 0.00 0.00 0.00 47 1013.9
20260506211712 58 279 0.0 0.0 0.00 0.00 0.00 47 933.9
20260506211558 58 279 0.0 0.0 0.00 0.00 0.00 47 933.9
20260506211408 58 279 0.0 0.0 0.00 0.00 0.00 48 1013.9
20260506211312 58 279 0.0 0.0 0.00 0.00 0.00 47 1013.8
20260506210952 58 279 0.0 0.0 0.00 0.00 0.00 48 934.0
20260506210908 58 278 0.0 0.0 0.00 0.00 0.00 48 1013.9
20260506210813 58 279 0.0 0.0 0.00 0.00 0.00 48 1013.9
20260506210454 58 279 0.0 0.0 0.00 0.00 0.00 48 934.0
20260506210407 58 279 0.0 0.0 0.00 0.00 0.00 48 1013.7
20260506210310 58 279 0.0 0.0 0.00 0.00 0.00 47 1013.9
20260506210227 58 279 0.0 0.0 0.00 0.00 0.00 48 1013.7
20260506205951 58 282 0.0 0.0 0.00 0.00 0.00 48 933.9
20260506205810 58 281 0.0 0.0 0.00 0.00 0.00 48 1013.6
20260506205717 58 279 0.0 0.0 0.00 0.00 0.00 49 933.9
20260506205603 58 279 0.0 0.0 0.00 0.00 0.00 49 933.9
20260506205408 58 279 0.0 0.0 0.00 0.00 0.00 47 1013.6
20260506205311 58 279 0.0 0.0 0.00 0.00 0.00 47 1013.6
20260506205133 58 281 0.0 0.0 0.00 0.00 0.00 48 1013.4
20260506205037 58 279 0.0 0.0 0.00 0.00 0.00 49 1013.4
20260506204949 58 279 0.0 0.0 0.00 0.00 0.00 49 933.5
20260506204556 58 279 0.0 0.0 0.00 0.00 0.00 47 933.5
20260506204403 58 279 0.0 0.0 0.00 0.00 0.00 47 1013.2
20260506204310 58 279 0.0 0.0 0.00 0.00 0.00 48 1013.2
20260506203950 58 279 0.0 0.0 0.00 0.00 0.00 47 933.2
20260506203903 58 279 0.0 0.0 0.00 0.00 0.00 47 1012.9
20260506203811 58 279 0.0 0.0 0.00 0.00 0.00 48 1012.9
20260506203718 57 279 0.0 0.0 0.00 0.00 0.00 48 933.0
20260506203452 57 279 0.0 0.0 0.00 0.00 0.00 48 933.0
20260506203404 57 279 0.0 0.0 0.00 0.00 0.00 49 1013.1
20260506203309 57 279 0.0 0.0 0.00 0.00 0.00 48 1013.1
20260506203215 57 279 0.0 0.0 0.00 0.00 0.00 48 1013.0
20260506202951 57 279 0.0 0.0 0.00 0.00 0.00 48 933.4
20260506202810 57 279 0.0 0.0 0.00 0.00 0.00 48 1013.0
20260506202714 57 279 0.0 0.0 0.00 0.00 0.00 48 933.0
20260506202600 57 279 0.0 0.0 0.00 0.00 0.00 48 933.0
20260506202404 57 279 0.0 0.0 0.00 0.00 0.00 48 1012.8
20260506202309 57 279 0.0 0.0 0.00 0.00 0.00 48 1012.8
20260506202209 57 279 0.0 0.0 0.00 0.00 0.00 49 933.0
20260506202056 57 279 0.0 0.0 0.00 0.00 0.00 49 933.0
20260506201902 57 279 0.0 0.0 0.00 0.00 0.00 49 1012.8
20260506201808 57 279 0.0 0.0 0.00 0.00 0.00 49 1012.8
20260506201450 57 281 0.0 0.0 0.00 0.00 0.00 49 933.1
20260506201404 57 281 0.0 0.0 0.00 0.00 0.00 49 1012.9
20260506201309 56 279 0.0 0.0 0.00 0.00 0.00 49 1012.9
20260506201004 56 279 0.0 0.0 0.00 0.00 0.00 50 932.9
20260506200946 56 279 0.0 0.0 0.00 0.00 0.00 55 1012.5
20260506200937 56 279 0.0 0.0 0.00 0.00 0.00 56 1012.7
20260506200922 56 279 0.0 0.0 0.00 0.00 0.00 50 1012.6
20260506200857 56 279 0.0 0.0 0.00 0.00 0.00 51 1012.6
20260506200452 56 279 0.0 0.0 0.00 0.00 0.00 54 932.7
20260506200219 56 279 0.0 0.0 0.00 0.00 0.00 57 933.1
20260506200056 56 279 0.0 0.0 0.00 0.00 0.00 57 933.1
20260506195902 56 279 0.0 0.0 0.00 0.00 0.00 59 1013.0
20260506195802 56 279 0.0 0.0 0.00 0.00 0.00 60 1012.9
20260506195451 56 279 0.0 0.0 0.00 0.00 0.00 56 933.1
20260506195402 56 279 0.0 0.0 0.00 0.00 0.00 57 1012.8
20260506195306 56 279 0.0 0.0 0.00 0.00 0.00 56 1012.8
20260506194949 56 279 0.0 0.0 0.00 0.00 0.00 55 933.1
20260506194857 56 279 0.0 0.0 0.00 0.00 0.00 53 1012.9
20260506194803 55 279 0.0 0.0 0.00 0.00 0.00 54 1012.9
20260506194451 54 279 0.0 0.0 0.00 0.00 0.00 62 933.4
20260506194356 55 279 0.0 0.0 0.00 0.00 0.00 56 1013.2
20260506194318 53 279 0.0 0.0 0.00 0.00 0.00 62 1013.7
20260506194313 54 279 0.0 0.0 0.00 0.00 0.00 59 1013.6
20260506194304 55 279 0.0 0.0 0.00 0.00 0.00 57 1013.4
20260506193949 54 281 0.0 0.0 0.00 0.00 0.00 62 933.6
20260506193905 54 279 0.0 0.0 0.00 0.00 0.00 60 1013.6
20260506193530 53 279 0.0 0.0 0.00 0.00 0.00 62 1013.7
20260506193449 53 279 0.0 0.0 0.00 0.00 0.00 62 933.7
20260506192949 53 279 0.0 0.0 0.00 0.00 0.00 65 933.9
20260506192854 53 279 0.0 0.0 0.00 0.00 0.00 64 1013.7
20260506192802 53 281 0.0 0.0 0.00 0.00 0.00 65 1013.8
20260506192450 53 279 0.0 0.0 0.00 0.00 0.00 67 933.9
20260506192356 53 279 0.0 0.0 0.00 0.00 0.00 68 1013.8
20260506192306 53 279 0.0 0.0 0.00 0.00 0.00 68 1013.9
20260506192207 53 279 0.0 0.0 0.00 0.00 0.00 71 934.0
20260506192055 53 279 0.0 0.0 0.00 0.00 0.00 71 934.0
20260506191859 53 279 0.0 0.0 0.00 0.00 0.00 71 1013.9
20260506191754 53 279 0.0 0.0 0.00 0.00 0.00 72 1013.9
20260506191721 53 279 0.0 0.0 0.00 0.00 0.00 72 1013.9
20260506191718 53 279 0.0 0.0 0.00 0.00 0.00 79 934.1
20260506191450 53 279 0.0 0.0 0.00 0.00 0.00 79 934.1
20260506191254 53 279 0.0 0.0 0.00 0.00 0.00 73 1013.9
20260506191217 53 279 0.0 0.0 0.00 0.00 0.00 79 934.0
20260506191055 53 279 0.0 0.0 0.00 0.00 0.00 79 934.0
20260506190853 53 279 0.0 0.0 0.00 0.00 0.00 75 1013.9
20260506190754 53 279 0.0 0.0 0.00 0.00 0.00 76 1013.9
20260506190725 53 279 0.0 0.0 0.00 0.00 0.00 78 1013.9
20260506190448 53 281 0.0 0.0 0.00 0.00 0.00 79 934.1
20260506190252 53 279 0.0 0.0 0.00 0.00 0.00 80 1013.9
20260506185949 53 279 0.0 0.0 0.00 0.00 0.00 85 933.9
20260506185850 53 279 0.0 0.0 0.00 0.00 0.00 82 1013.7
20260506185741 53 279 0.0 0.0 0.00 0.00 0.00 83 1013.7
20260506185450 54 281 0.0 0.0 0.00 0.00 0.00 86 933.9
20260506185350 54 279 0.0 0.0 0.00 0.00 0.00 86 1013.8
20260506185242 54 279 0.0 0.0 0.00 0.00 0.00 86 1013.8
20260506184948 55 279 0.0 0.0 0.00 0.00 0.00 87 933.9
20260506184850 55 281 0.0 0.0 0.00 0.00 0.00 87 1013.7
20260506184743 55 279 0.0 0.0 0.00 0.00 0.00 88 1013.7
20260506184450 55 279 0.0 0.0 0.00 0.00 0.00 88 933.9
20260506184351 55 281 0.0 0.0 0.00 0.00 0.00 88 1013.8
20260506184242 55 279 0.0 0.0 0.00 0.00 0.00 88 1013.8
20260506183947 0 279 0.0 0.0 0.00 0.00 0.00 934.0
20260506183849 56 279 0.0 0.0 0.00 0.00 0.00 88 1013.9
20260506183742 56 281 0.0 0.0 0.00 0.00 0.00 88 1013.8
20260506183448 0 279 0.0 0.0 0.00 0.00 0.00 934.1
20260506183414 56 279 0.0 0.0 0.00 0.00 0.00 88 1014.0
20260506183354 56 279 0.0 0.0 0.00 0.00 0.00 88 1013.9
20260506183324 56 279 0.0 0.0 0.00 0.00 0.00 88 1014.0
20260506183205 56 279 0.0 0.0 0.00 0.00 0.00 88 1013.9
20260506182947 0 279 0.0 0.0 0.00 0.00 0.00 934.1
20260506182450 56 279 0.0 0.0 0.00 0.00 0.00 87 934.1
20260506182232 56 279 0.0 0.0 0.00 0.00 0.00 87 1014.0
20260506181947 56 279 0.0 0.0 0.00 0.00 0.00 87 934.1
20260506181843 56 279 0.0 0.0 0.00 0.00 0.00 87 1013.9
20260506181735 56 279 0.0 0.0 0.00 0.00 0.00 87 1014.0
20260506181442 57 281 0.0 0.0 0.00 0.00 0.00 86 934.1
20260506181344 56 279 0.0 0.0 0.00 0.00 0.00 87 1013.9
20260506181234 57 279 0.0 0.0 0.00 0.00 0.00 87 1014.0
20260506180941 57 279 0.0 0.0 0.00 0.00 0.00 86 934.1
20260506180846 57 279 0.0 0.0 0.00 0.00 0.00 87 1014.0
20260506180732 57 279 0.0 0.0 0.00 0.00 0.00 87 1014.0
20260506180703 57 279 0.0 0.0 0.00 0.00 0.00 86 934.0
20260506180549 57 279 0.0 0.0 0.00 0.00 0.00 86 934.0
20260506180343 57 279 0.0 0.0 0.00 0.00 0.00 86 1014.0
20260506180232 57 279 0.0 0.0 0.00 0.00 0.00 86 1014.0
20260506175942 57 279 0.0 0.0 0.00 0.00 0.00 86 934.1
20260506175843 57 279 0.0 0.0 0.00 0.00 0.00 86 1014.0
20260506175732 57 279 0.0 0.0 0.00 0.00 0.00 86 1014.0
20260506175443 58 279 0.0 0.0 0.00 0.00 0.00 85 934.1
20260506175346 58 279 0.0 0.0 0.00 0.00 0.00 86 1014.0
20260506175232 58 279 0.0 0.0 0.00 0.00 0.00 86 1013.9
20260506174941 58 279 0.0 0.0 0.00 0.00 0.00 85 934.1
20260506174841 58 279 0.0 0.0 0.00 0.00 0.00 85 1013.8
20260506174733 58 279 0.0 0.0 0.00 0.00 0.00 85 1013.8
20260506174710 58 279 0.0 0.0 0.00 0.00 0.00 85 934.0
20260506174649 58 279 0.0 0.0 0.00 0.00 0.00 85 1013.9
20260506174548 58 279 0.0 0.0 0.00 0.00 0.00 85 934.0
20260506174232 58 279 0.0 0.0 0.00 0.00 0.00 85 1013.9
20260506174201 58 279 0.0 0.0 0.00 0.00 0.00 84 934.0
20260506174047 58 279 0.0 0.0 0.00 0.00 0.00 84 934.0
20260506173836 58 279 0.0 0.0 0.00 0.00 0.00 84 1013.8
20260506173730 58 279 0.0 0.0 0.00 0.00 0.00 84 1013.7
20260506173436 59 279 0.0 0.0 0.00 0.00 0.00 84 933.8
20260506173335 59 279 0.0 0.0 0.00 0.00 0.00 84 1013.7
20260506173231 59 279 0.0 0.0 0.00 0.00 0.00 84 1013.6
20260506172934 59 279 0.0 0.0 0.00 0.00 0.00 84 933.7
20260506172835 59 279 0.0 0.0 0.00 0.00 0.00 84 1013.6
20260506172730 59 279 0.0 0.0 0.00 0.00 0.00 84 1013.6
20260506172435 60 279 0.0 0.0 0.00 0.00 0.00 83 933.8
20260506172333 59 279 0.0 0.0 0.00 0.00 0.00 83 1013.6
20260506172230 60 279 0.0 0.0 0.00 0.00 0.00 83 1013.6
20260506171934 60 279 0.0 0.0 0.00 0.00 0.00 83 933.7
20260506171835 60 281 0.0 0.0 0.00 0.00 0.00 83 1013.6
20260506171731 60 279 0.0 0.0 0.00 0.00 0.00 83 1013.5
20260506171701 0 279 0.0 0.0 0.00 0.00 0.00 933.6
20260506171434 0 279 0.0 0.0 0.00 0.00 0.00 933.6
20260506171335 60 279 0.0 0.0 0.00 0.00 0.00 82 1013.4
20260506171231 60 279 0.0 0.0 0.00 0.00 0.00 82 1013.5
20260506170934 60 279 0.0 0.0 0.00 0.00 0.00 81 933.5
20260506170835 60 279 0.0 0.0 0.00 0.00 0.00 82 1013.4
20260506170735 60 279 0.0 0.0 0.00 0.00 0.00 81 1013.5
20260506170435 60 279 0.0 0.0 0.00 0.00 0.00 81 933.6
20260506170331 60 279 0.0 0.0 0.00 0.00 0.00 81 1013.5
20260506170233 60 279 0.0 0.0 0.00 0.00 0.00 81 1013.2
20260506170206 60 279 0.0 0.0 0.00 0.00 0.00 81 933.4
20260506165934 60 279 0.0 0.0 0.00 0.00 0.00 81 933.4
20260506165832 60 281 0.0 0.0 0.00 0.00 0.00 81 1013.4
20260506165730 60 279 0.0 0.0 0.00 0.00 0.00 81 1013.4
20260506165437 60 279 0.0 0.0 0.00 0.00 0.00 80 933.5
20260506165332 60 279 0.0 0.0 0.00 0.00 0.00 80 1013.4
20260506165232 60 279 0.0 0.0 0.00 0.00 0.00 80 1013.5
20260506165039 60 279 0.0 0.0 0.00 0.00 0.00 80 933.8
20260506164833 60 279 0.0 0.0 0.00 0.00 0.00 80 1013.7
20260506164722 60 279 0.0 0.0 0.00 0.00 0.00 80 1013.7
20260506164435 61 279 0.0 0.0 0.00 0.00 0.00 79 933.9
20260506164330 61 279 0.0 0.0 0.00 0.00 0.00 79 1013.7
20260506164224 61 279 0.0 0.0 0.00 0.00 0.00 79 1013.7
20260506163936 61 281 0.0 0.0 0.00 0.00 0.00 79 933.8
20260506163928 61 279 0.0 0.0 0.00 0.00 0.00 77 933.8
20260506163807 61 279 0.0 0.0 0.00 0.00 0.00 79 1013.5
20260506163713 61 279 0.0 0.0 0.00 0.00 0.00 79 1013.7
20260506163436 61 279 0.0 0.0 0.00 0.00 0.00 77 933.8
20260506163304 61 279 0.0 0.0 0.00 0.00 0.00 77 1013.7
20260506163215 61 279 0.0 0.0 0.00 0.00 0.00 77 1013.7
20260506162933 61 279 0.0 0.0 0.00 0.00 0.00 77 933.8
20260506162804 61 279 0.0 0.0 0.00 0.00 0.00 77 1013.7
20260506162715 61 279 0.0 0.0 0.00 0.00 0.00 77 1013.7
20260506162655 61 279 0.0 0.0 0.00 0.00 0.00 77 933.8
20260506162540 61 279 0.0 0.0 0.00 0.00 0.00 77 933.8
20260506162307 61 279 0.0 0.0 0.00 0.00 0.00 77 1013.7
20260506162215 61 279 0.0 0.0 0.00 0.00 0.00 77 1013.6
20260506161933 62 279 0.0 0.0 0.00 0.00 0.00 78 933.9
20260506161806 62 279 0.0 0.0 0.00 0.00 0.00 78 1013.7
20260506161715 62 278 0.0 0.0 0.00 0.00 0.00 78 1013.7
20260506161435 62 279 0.0 0.0 0.00 0.00 0.00 76 933.9
20260506161306 62 279 0.0 0.0 0.00 0.00 0.00 77 1013.9
20260506161213 62 279 0.0 0.0 0.00 0.00 0.00 77 1013.9
20260506161153 62 279 0.0 0.0 0.00 0.00 0.00 76 934.0
20260506161039 62 279 0.0 0.0 0.00 0.00 0.00 76 934.0
20260506160819 62 279 0.0 0.0 0.00 0.00 0.00 77 1013.9
20260506160713 62 281 0.0 0.0 0.00 0.00 0.00 77 1013.9
20260506160446 62 279 0.0 0.0 0.00 0.00 0.00 76 934.1
20260506160305 62 279 0.0 0.0 0.00 0.00 0.00 76 1014.0
20260506160211 62 279 0.0 0.0 0.00 0.00 0.00 76 1014.0
20260506155935 63 279 0.0 0.0 0.00 0.00 0.00 76 934.1
20260506155819 63 279 0.0 0.0 0.00 0.00 0.00 76 1013.9
20260506155711 63 279 0.0 0.0 0.00 0.00 0.00 76 1013.9
20260506155432 63 279 0.0 0.0 0.00 0.00 0.00 75 934.1
20260506155307 63 281 0.0 0.0 0.00 0.00 0.00 75 1014.0
20260506155210 64 279 0.0 0.0 0.00 0.00 0.00 75 1014.0
20260506154935 64 279 0.0 0.0 0.00 0.00 0.00 76 934.1
20260506154804 64 279 0.0 0.0 0.00 0.00 0.00 76 1013.9
20260506154708 64 279 0.0 0.0 0.00 0.00 0.00 76 1013.9
20260506154706 65 278 0.0 0.0 0.00 0.00 0.00 75 934.1
20260506154434 65 278 0.0 0.0 0.00 0.00 0.00 75 934.1
20260506154304 64 278 0.0 0.0 0.00 0.00 0.00 75 1014.0
20260506154207 65 278 0.0 0.0 0.00 0.00 0.00 75 1013.9
20260506154039 65 279 0.0 0.0 0.00 0.00 0.00 74 934.1
20260506153951 65 278 0.0 0.0 0.00 0.00 0.00 75 1013.9
20260506153946 65 278 0.0 0.0 0.00 0.00 0.00 76 1013.9
20260506153940 64 278 0.0 0.0 0.00 0.00 0.00 76 1013.9
20260506153856 65 278 0.0 0.0 0.00 0.00 0.00 75 1014.0
20260506153835 65 278 0.0 0.0 0.00 0.00 0.00 74 1013.9
20260506153653 65 278 0.0 0.0 0.00 0.00 0.00 75 934.0
20260506153540 65 278 0.0 0.0 0.00 0.00 0.00 75 934.0
20260506153152 64 278 0.0 0.0 0.00 0.00 0.00 77 934.0
20260506153116 64 278 0.0 0.0 0.00 0.00 0.00 77 1013.9
20260506153038 64 278 0.0 0.0 0.00 0.00 0.00 77 934.0
20260506152434 64 272 0.0 0.0 0.00 0.00 0.00 76 934.0
20260506152204 64 272 0.0 0.0 0.00 0.00 0.00 76 1013.9
20260506152202 63 272 0.0 0.0 0.00 0.00 0.00 76 934.0
20260506151932 63 272 0.0 0.0 0.00 0.00 0.00 76 934.0
20260506151803 63 269 0.0 0.0 0.00 0.00 0.00 76 1013.9
20260506151702 63 269 0.0 0.0 0.00 0.00 0.00 76 1013.9
20260506151539 63 268 0.0 0.0 0.00 0.00 0.00 75 934.1
20260506151513 63 269 0.0 0.0 0.00 0.00 0.00 75 1014.1
20260506151443 63 269 0.0 0.0 0.00 0.00 0.00 75 1014.1
20260506150932 63 268 0.0 0.0 0.00 0.00 0.00 74 934.3
20260506150804 63 18 0.0 0.0 0.00 0.00 0.00 75 1014.1
20260506150703 63 25 0.0 0.0 0.00 0.00 0.00 74 1014.1
20260506150433 63 24 0.0 0.0 0.00 0.00 0.00 74 934.3
20260506150304 63 17 0.0 0.0 0.00 0.00 0.00 74 1014.2
20260506150204 63 17 0.0 0.0 0.00 0.00 0.00 74 1014.1
20260506150028 64 16 0.0 0.0 0.00 0.00 0.00 72 934.4
20260506145805 64 13 0.0 0.0 0.00 0.00 0.00 73 1014.3
20260506145704 64 13 0.0 0.0 0.00 0.00 0.00 72 1014.2
20260506145433 64 123 0.0 0.0 0.00 0.00 0.00 70 934.2
20260506145306 64 0 0.0 0.0 0.00 0.00 0.00 71 1014.1
20260506145204 64 0 0.0 0.0 0.00 0.00 0.00 71 1014.1
20260506144931 64 357 0.0 0.0 0.00 0.00 0.00 70 934.3
20260506144802 64 0 0.0 0.0 0.00 0.00 0.00 70 1014.1
20260506144703 65 190 0.0 0.0 0.00 0.00 0.00 70 1014.2
20260506144432 65 190 0.0 0.0 0.00 0.00 0.00 70 934.3
20260506144302 65 192 0.0 0.0 0.00 0.00 0.00 70 1014.2
20260506144204 65 173 0.0 0.0 0.00 0.00 0.00 70 1014.2
20260506144154 66 173 0.0 0.0 0.00 0.00 0.00 71 934.3
20260506144035 66 173 0.0 0.0 0.00 0.00 0.00 71 934.3
20260506144023 66 186 0.0 0.0 0.00 0.00 0.00 71 1014.1
20260506143935 66 173 0.0 0.0 0.00 0.00 0.00 70 1014.1
20260506143529 67 189 0.0 0.0 0.00 0.00 0.00 70 1014.0
20260506143432 67 188 0.0 0.0 0.00 0.00 0.00 71 1014.0
20260506143155 67 290 0.0 0.0 0.00 0.00 0.00 68 934.2
20260506142930 67 290 0.0 0.0 0.00 0.00 0.00 68 934.2
20260506142805 67 353 0.0 0.0 0.00 0.00 0.00 70 1014.0
20260506142703 67 240 0.0 0.0 0.00 0.00 0.00 70 1014.0
20260506142514 67 206 0.0 0.0 0.00 0.00 0.00 68 1014.1
20260506142429 67 206 0.0 0.0 0.00 0.00 0.00 70 1014.1
20260506142425 67 207 0.0 0.0 0.00 0.00 0.00 68 934.2
20260506141924 67 195 0.0 0.0 0.00 0.00 0.00 69 934.3
20260506141802 67 195 0.0 0.0 0.00 0.00 0.00 69 1014.1
20260506141701 67 195 0.0 0.0 0.00 0.00 0.00 68 1014.1
20260506141426 67 338 0.0 0.0 0.00 0.00 0.00 69 934.3
20260506141304 67 316 0.0 0.0 0.00 0.00 0.00 69 1014.2
20260506141203 67 314 0.0 0.0 0.00 0.00 0.00 69 1014.2
20260506140922 66 202 0.0 0.0 0.00 0.00 0.00 72 934.5
20260506140804 66 202 0.0 0.0 0.00 0.00 0.00 72 1014.3
20260506140700 66 202 0.0 0.0 0.00 0.00 0.00 72 1014.2
20260506140425 66 200 0.0 0.0 0.00 0.00 0.00 71 934.4
20260506140303 66 182 0.0 1.7 0.00 0.00 0.00 69 1014.3
20260506140202 66 183 0.0 1.7 0.00 0.00 0.00 69 1014.2
20260506140154 66 248 0.0 2.6 0.00 0.00 0.00 71 934.4
20260506140043 66 248 0.0 1.7 0.00 0.00 0.00 71 1014.2
20260506135922 66 248 0.0 2.6 0.00 0.00 0.00 71 934.4
20260506135700 66 248 0.0 1.7 0.00 0.00 0.00 71 1014.2
20260506135425 67 248 0.9 2.6 0.00 0.00 0.00 70 934.4
20260506135306 67 248 0.0 1.7 0.00 0.00 0.00 70 1014.2
20260506135202 67 262 0.0 0.9 0.00 0.00 0.00 70 1014.2
20260506134924 66 216 0.0 0.0 0.00 0.00 0.00 73 934.2
20260506134802 66 217 0.0 3.5 0.00 0.00 0.00 71 1014.0
20260506134700 66 216 0.0 3.5 0.00 0.00 0.00 71 1014.0
20260506134521 66 144 0.0 3.5 0.00 0.00 0.00 72 1014.0
20260506134433 65 144 0.0 3.5 0.00 0.00 0.00 73 1013.9
20260506134425 65 144 0.0 0.0 0.00 0.00 0.00 72 934.2
20260506134145 66 28 0.0 0.9 0.00 0.00 0.00 72 1014.1
20260506134141 66 138 0.0 1.7 0.00 0.00 0.00 72 1014.0
20260506133924 66 1 0.0 0.0 0.00 0.00 0.00 72 934.2
20260506133807 66 76 0.0 1.7 0.00 0.00 0.00 72 1014.0
20260506133432 66 189 0.0 0.9 0.00 0.00 0.00 72 1014.1
20260506133425 66 344 0.0 0.9 0.00 0.00 0.00 72 934.2
20260506133151 67 351 0.0 0.9 0.00 0.00 0.00 69 934.2
20260506132923 67 351 0.0 0.9 0.00 0.00 0.00 69 934.2
20260506132802 67 354 0.0 0.9 0.00 0.00 0.00 69 1014.1
20260506132703 68 179 0.0 0.0 0.00 0.00 0.00 69 1014.2
20260506132652 68 18 0.0 0.0 0.00 0.00 0.00 71 934.3
20260506132424 68 18 0.0 0.0 0.00 0.00 0.00 71 934.3
20260506132307 68 18 0.0 0.0 0.00 0.00 0.00 70 1014.2
20260506132202 68 355 0.0 0.0 0.00 0.00 0.00 70 1014.1
20260506131923 66 25 0.0 0.0 0.00 0.00 0.00 72 934.5
20260506131801 67 179 0.0 0.0 0.00 0.00 0.00 72 1014.3
20260506131702 67 179 0.0 0.0 0.00 0.00 0.00 72 1014.2
20260506131532 67 182 0.0 0.0 0.00 0.00 0.00 71 934.4
20260506131300 66 179 0.0 0.0 0.00 0.00 0.00 71 1014.2
20260506131202 67 180 0.0 0.0 0.00 0.00 0.00 70 1014.2
20260506131147 67 224 0.0 3.5 0.00 0.00 0.00 69 934.3
20260506131027 67 224 0.0 3.5 0.00 0.00 0.00 69 934.3
20260506130801 67 223 0.0 3.5 0.00 0.00 0.00 69 1014.2
20260506130702 67 223 0.0 3.5 0.00 0.00 0.00 70 1014.3
20260506130424 67 179 0.0 3.5 0.00 0.00 0.00 70 934.4
20260506130305 67 171 0.0 3.5 0.00 0.00 0.00 71 1014.3
20260506130159 67 171 0.9 3.5 0.00 0.00 0.00 70 1014.3
20260506125922 67 178 0.0 0.9 0.00 0.00 0.00 69 934.4
20260506125758 67 4 0.0 2.6 0.00 0.00 0.00 69 1014.3
20260506125659 68 16 0.0 2.6 0.00 0.00 0.00 69 1014.3
20260506125424 68 210 0.0 0.0 0.00 0.00 0.00 69 934.5
20260506125304 68 210 0.0 0.0 0.00 0.00 0.00 69 1014.3
20260506125252 0 25 0.0 0.0 0.00 0.00 0.00 934.4
20260506125200 67 210 0.0 0.0 0.00 0.00 0.00 68 1014.2
20260506124801 67 292 0.0 0.0 0.00 0.00 0.00 70 1014.2
20260506124701 67 330 0.0 0.0 0.00 0.00 0.00 69 1014.1
20260506124629 68 49 0.0 2.6 0.00 0.00 0.00 67 1014.1
20260506124424 68 51 0.0 0.9 0.00 0.00 0.00 69 934.2
20260506124159 68 3 0.0 2.6 0.00 0.00 0.00 68 1013.9
20260506123922 68 13 0.0 2.6 0.00 0.00 0.00 69 934.3
20260506123759 68 173 0.0 2.6 0.00 0.00 0.00 68 1014.2
20260506123701 68 186 0.9 2.6 0.00 0.00 0.00 69 1014.3
20260506123544 66 186 0.9 3.5 0.00 0.00 0.00 67 1014.4
20260506123442 67 186 0.0 3.5 0.00 0.00 0.00 69 1014.5
20260506123424 67 186 0.0 2.6 0.00 0.00 0.00 69 934.5
20260506122922 67 189 1.7 3.5 0.00 0.00 0.00 67 934.6
20260506122759 66 188 0.9 3.5 0.00 0.00 0.00 68 1014.4
20260506122700 67 3 0.9 3.5 0.00 0.00 0.00 67 1014.5
20260506122424 67 189 0.9 3.5 0.00 0.00 0.00 68 934.8
20260506122259 67 220 0.0 0.0 0.00 0.00 0.00 68 1014.6
20260506122200 67 220 0.0 0.0 0.00 0.00 0.00 68 1014.6
20260506122100 67 221 0.0 3.5 0.00 0.00 0.00 67 1014.6
20260506121922 67 220 0.0 0.0 0.00 0.00 0.00 67 934.7
20260506121701 67 220 0.0 3.5 0.00 0.00 0.00 67 1014.6
20260506121423 66 0 0.0 2.6 0.00 0.00 0.00 68 934.9
20260506121257 66 216 0.0 5.2 0.00 0.00 0.00 69 1014.9
20260506121159 66 214 0.0 5.2 0.00 0.00 0.00 69 1014.7
20260506120922 67 200 0.9 5.2 0.00 0.00 0.00 67 934.9
20260506120800 67 202 0.9 5.2 0.00 0.00 0.00 67 1014.9
20260506120700 68 190 1.7 5.2 0.00 0.00 0.00 66 1014.9
20260506120423 68 165 0.0 5.2 0.00 0.00 0.00 67 934.8
20260506120258 67 166 0.0 5.2 0.00 0.00 0.00 66 1014.7
20260506120159 68 213 0.9 5.2 0.00 0.00 0.00 67 1014.7
20260506120143 68 202 0.0 4.3 0.00 0.00 0.00 67 934.8
20260506120104 68 203 0.0 5.2 0.00 0.00 0.00 67 1014.6
20260506120028 68 202 0.0 4.3 0.00 0.00 0.00 67 934.8
20260506115659 68 154 0.9 5.2 0.00 0.00 0.00 67 1014.6
20260506115423 68 203 1.7 4.3 0.00 0.00 0.00 67 934.7
20260506115306 68 186 0.9 5.2 0.00 0.00 0.00 65 1014.6
20260506115201 68 168 0.9 5.2 0.00 0.00 0.00 66 1014.6
20260506114922 68 196 1.7 3.5 0.00 0.00 0.00 66 934.8
20260506114757 68 183 0.9 2.6 0.00 0.00 0.00 65 1014.7
20260506114659 67 185 0.0 2.6 0.00 0.00 0.00 67 1014.7
20260506114422 67 189 0.0 2.6 0.00 0.00 0.00 63 934.9
20260506114258 67 185 0.0 2.6 0.00 0.00 0.00 65 1014.7
20260506114158 67 185 0.0 2.6 0.00 0.00 0.00 64 1014.7
20260506114141 67 203 0.0 0.0 0.00 0.00 0.00 65 935.0
20260506114028 67 203 0.0 0.0 0.00 0.00 0.00 65 935.0
20260506113758 67 202 0.0 0.0 0.00 0.00 0.00 65 1014.9
20260506113659 67 202 0.0 0.0 0.00 0.00 0.00 64 1014.7
20260506113421 66 157 0.0 0.0 0.00 0.00 0.00 66 934.9
20260506113257 66 189 0.0 0.0 0.00 0.00 0.00 66 1014.7
20260506113200 67 147 0.0 0.0 0.00 0.00 0.00 64 1014.7
20260506112920 68 186 0.0 0.0 0.00 0.00 0.00 66 934.8
20260506112758 68 199 0.0 0.0 0.00 0.00 0.00 66 1014.7
20260506112658 67 213 0.0 0.0 0.00 0.00 0.00 65 1014.6
20260506112420 68 207 0.0 0.0 0.00 0.00 0.00 64 934.9
20260506112259 68 207 0.0 0.0 0.00 0.00 0.00 64 1014.9
20260506112159 68 188 0.0 0.0 0.00 0.00 0.00 63 1015.0
20260506112102 68 233 0.0 0.0 0.00 0.00 0.00 65 1014.6
20260506111921 68 4 0.0 0.0 0.00 0.00 0.00 66 934.8
20260506111658 68 178 0.0 0.0 0.00 0.00 0.00 65 1014.6
20260506111421 69 152 0.0 0.0 0.00 0.00 0.00 67 934.7
20260506111257 68 172 0.0 0.0 0.00 0.00 0.00 67 1014.6
20260506111158 68 172 0.0 0.0 0.00 0.00 0.00 67 1014.5
20260506110920 68 171 0.0 0.0 0.00 0.00 0.00 67 934.8
20260506110747 68 231 0.0 0.0 0.00 0.00 0.00 67 1014.6
20260506110657 68 231 0.0 0.0 0.00 0.00 0.00 67 1014.6
20260506110422 68 295 0.0 0.0 0.00 0.00 0.00 69 934.7
20260506110242 68 185 0.0 0.0 0.00 0.00 0.00 66 1014.6
20260506110200 68 185 0.0 0.0 0.00 0.00 0.00 66 1014.6
20260506105920 69 30 0.0 0.0 0.00 0.00 0.00 67 934.8
20260506105741 69 44 0.0 0.0 0.00 0.00 0.00 66 1014.7
20260506105657 69 32 0.0 0.0 0.00 0.00 0.00 67 1014.7
20260506105421 69 190 0.0 0.0 0.00 0.00 0.00 70 934.9
20260506105333 69 193 0.0 0.0 0.00 0.00 0.00 69 1014.7
20260506105327 68 193 0.0 0.0 0.00 0.00 0.00 68 1014.7
20260506105311 69 173 0.0 0.0 0.00 0.00 0.00 70 1014.9
20260506105251 68 173 0.0 0.0 0.00 0.00 0.00 69 1014.9
20260506105143 69 182 0.0 0.0 0.00 0.00 0.00 68 934.9
20260506105026 69 182 0.0 0.0 0.00 0.00 0.00 68 934.9
20260506104422 69 183 0.0 0.0 0.00 0.00 0.00 68 934.9
20260506104239 69 206 0.0 0.0 0.00 0.00 0.00 66 1014.9
20260506104157 68 182 0.0 0.0 0.00 0.00 0.00 64 1014.9
20260506104011 67 193 0.0 0.0 0.00 0.00 0.00 65 934.9
20260506103844 68 209 0.0 0.0 0.00 0.00 0.00 67 1014.7
20260506103832 67 209 0.0 0.0 0.00 0.00 0.00 67 1014.7